This is the latest recevied weather packets stored in our database for station/object 7L2IWN-13. If no packets are shown the sender has not sent any weather packets the latest 10 day(s).
| Time | Temp. | Humidity | Pressure | Rain* | Wind** | Luminosity | Snow |
|---|---|---|---|---|---|---|---|
| 1777558222 | 8.89° C | 99% | 1018.2 hPa | 0.25 mm | - | - | - |
| 1777556060 | 9.44° C | 99% | 1018.8 hPa | 0.25 mm | - | - | - |
| 1777554620 | 9.44° C | 99% | 1018.6 hPa | 0.25 mm | - | - | - |
| 1777553179 | 9.44° C | 99% | 1019.2 hPa | 0 mm | - | - | - |
| 1777551740 | 9.44° C | 99% | 1019.1 hPa | 0 mm | - | - | - |
| 1777548861 | 9.44° C | 97% | 1019.2 hPa | 0 mm | - | - | - |
| 1777547422 | 10.56° C | 99% | 1019.4 hPa | 0.25 mm | - | - | - |
| 1777545982 | 10.56° C | 98% | 1019.5 hPa | 0.25 mm | - | - | - |
| 1777545261 | 11.11° C | 97% | 1019.1 hPa | 0.25 mm | - | - | - |
| 1777544540 | 11.11° C | 94% | 1019 hPa | 0 mm | - | - | - |
| 1777543820 | 11.11° C | 93% | 1019 hPa | 0 mm | - | - | - |
| 1777542379 | 11.67° C | 92% | 1019.3 hPa | 0 mm | - | - | - |
| 1777541659 | 11.67° C | 90% | 1019.2 hPa | 0 mm | - | - | - |
| 1777540942 | 11.67° C | 89% | 1018.9 hPa | 0 mm | - | - | - |
| 1777539500 | 11.67° C | 89% | 1019 hPa | 0 mm | - | - | - |
| 1777538782 | 11.67° C | 88% | 1019 hPa | 0 mm | - | - | - |
| 1777538060 | 12.22° C | 87% | 1018.8 hPa | 0 mm | - | - | - |
| 1777537341 | 12.22° C | 86% | 1018.7 hPa | 0 mm | - | - | - |
| 1777536621 | 11.67° C | 86% | 1018.7 hPa | 0 mm | - | - | - |
| 1777535900 | 12.22° C | 85% | 1018.8 hPa | 0 mm | - | - | - |
| 1777534460 | 12.22° C | 85% | 1019.1 hPa | 0 mm | - | - | - |
| 1777533742 | 12.22° C | 85% | 1019.1 hPa | 0 mm | - | - | - |
| 1777533019 | 12.22° C | 85% | 1018.9 hPa | 0 mm | - | - | - |
| 1777532300 | 12.22° C | 84% | 1019 hPa | 0 mm | - | - | - |
| 1777531581 | 12.22° C | 84% | 1019.2 hPa | 0 mm | - | - | - |
* Rain latest hour (hover to see other rain measurements)
** Current wind speed in m/s (hover to see current wind gust speed)